Theta_e
324 326 326 325 326 325 324 324 320 323 329 328 323 323 328 324 321 323 324 323 327 327 330 332 329 332 335 336 344 346 345 347 347 348 349 349 350 351 351 352 351 351 352 351 351 351 351 351 351 351 351 350 351 351 351 351 351 351 351 351 350 348 347
323 324 326 325 327 328 325 322 321 327 327 325 325 325 325 321 320 324 322 320 324 322 325 335 332 329 332 336 344 348 345 347 348 348 350 349 349 351 351 352 351 351 352 351 351 352 351 352 351 351 351 351 351 351 352 352 351 352 352 352 351 350 349
325 325 325 324 325 326 326 325 325 328 323 320 323 324 322 320 319 322 321 320 323 322 325 334 330 327 330 332 341 349 347 347 348 348 349 349 350 350 351 352 351 351 352 350 351 351 351 352 352 352 352 352 352 353 352 353 353 353 353 353 352 351 349
326 326 324 321 322 326 327 325 326 329 325 320 322 321 322 324 322 321 321 319 322 326 329 330 327 328 329 327 338 348 348 347 348 348 349 349 349 350 351 351 351 351 351 350 350 351 351 352 352 353 353 353 353 354 353 354 353 353 354 353 353 352 351
324 324 323 323 323 324 324 322 322 324 323 323 324 321 323 329 329 325 322 320 324 330 329 328 327 328 328 326 333 343 348 347 347 348 348 349 349 349 351 351 351 351 351 350 350 351 352 353 354 354 354 354 354 354 354 354 354 355 355 355 354 354 353
322 323 325 327 326 326 325 323 322 322 321 321 320 320 322 323 328 332 328 323 329 339 332 328 329 327 328 327 326 337 347 347 347 348 348 348 349 350 351 351 351 351 351 351 351 351 352 353 354 355 355 355 355 355 355 354 355 356 355 356 355 355 354
323 324 326 326 326 328 327 325 324 324 324 320 317 320 321 316 321 331 328 321 330 349 342 330 329 327 327 328 324 331 343 347 347 348 347 349 349 349 351 351 351 351 351 352 352 352 352 352 354 354 354 355 355 355 355 355 356 355 355 356 356 356 356
326 327 329 327 327 327 326 325 326 324 324 323 321 327 328 319 317 321 321 318 327 352 356 338 333 330 326 327 325 329 342 347 347 348 347 349 349 349 350 350 351 351 351 352 352 351 352 352 353 354 353 354 355 355 357 357 357 356 357 357 356 356 356
329 325 327 328 326 326 324 326 327 324 326 325 324 330 329 321 319 320 320 320 328 355 367 344 334 331 327 328 326 328 341 347 346 347 347 347 348 348 349 350 350 352 352 352 352 351 352 351 352 352 352 353 355 355 357 357 357 357 357 358 358 357 358
331 327 330 330 326 326 326 327 326 325 326 323 323 326 322 320 325 323 319 322 331 351 358 340 332 331 327 328 327 330 340 345 345 347 346 347 349 348 348 349 350 351 351 352 352 351 351 350 351 352 352 353 355 355 357 357 357 358 358 359 359 359 358
326 326 328 328 326 326 326 326 325 325 326 323 326 327 322 326 332 324 322 327 328 338 350 341 333 331 330 332 332 335 340 342 344 346 346 347 347 346 348 349 349 350 350 351 352 351 351 349 350 351 352 353 353 355 356 357 358 358 359 360 360 359 359
319 319 320 320 323 326 326 326 325 325 327 324 323 323 325 334 332 321 329 337 328 333 350 346 336 338 345 351 345 339 339 342 344 344 345 347 346 347 348 348 348 349 349 350 351 351 351 351 351 352 353 353 353 354 356 357 358 359 359 359 359 359 359
314 314 317 320 323 326 329 328 326 324 326 325 322 323 329 338 331 323 335 344 333 336 348 346 343 345 352 357 350 339 339 343 344 343 345 347 346 346 347 348 348 349 349 350 350 350 351 351 351 353 353 354 355 355 356 356 357 358 358 358 359 359 360
313 315 319 322 325 328 329 329 328 326 327 326 324 325 330 337 336 337 346 348 341 339 342 345 345 340 342 346 344 339 340 344 343 342 344 346 346 346 346 347 348 348 349 349 348 349 351 351 351 352 352 354 354 355 355 356 357 357 358 360 360 361 361
314 317 322 323 324 327 328 330 331 328 326 327 325 325 329 333 334 341 349 348 344 341 340 341 337 333 337 344 342 340 342 342 342 343 344 345 346 345 345 346 347 347 348 349 349 351 350 349 349 350 351 353 354 355 356 357 357 359 359 361 361 361 361
315 318 320 321 323 327 330 332 334 330 326 327 325 324 329 331 330 339 346 342 341 340 338 338 336 334 339 341 336 337 342 343 343 342 342 344 345 345 346 345 345 347 348 348 349 349 349 348 348 348 351 354 355 356 357 358 360 360 360 362 362 361 361
316 316 318 322 326 330 330 329 331 332 330 333 331 328 336 339 335 339 343 341 344 342 336 336 337 334 336 338 333 332 339 343 343 343 343 344 344 344 345 345 345 346 348 349 348 348 347 347 347 348 350 353 356 358 359 361 361 361 362 362 362 362 362
315 315 319 327 330 330 330 328 329 331 335 342 342 339 341 341 340 340 342 344 345 339 333 335 340 339 342 348 346 343 343 344 345 348 348 346 346 345 345 345 345 346 348 349 349 349 349 348 348 350 352 353 357 358 359 361 362 362 362 362 362 362 362
314 318 327 335 334 332 331 328 328 330 332 338 341 341 341 339 340 342 344 341 338 336 339 344 349 351 354 356 357 355 352 349 349 353 354 353 351 349 346 346 346 347 347 349 351 353 355 355 355 356 357 359 360 361 362 362 363 363 363 363 362 363 362
317 323 331 336 335 334 332 328 327 328 329 332 339 344 342 338 339 341 343 341 336 339 350 355 356 358 358 357 357 356 355 356 355 356 359 358 357 356 355 354 353 352 352 351 352 355 357 359 361 361 360 362 362 363 363 363 363 364 364 364 363 363 363
320 320 324 332 338 340 338 331 327 327 327 329 337 345 344 338 338 339 341 345 343 340 349 355 355 355 356 357 357 354 354 355 356 357 359 359 359 360 360 361 362 361 360 360 360 359 359 361 362 361 362 362 363 364 364 363 364 364 364 364 364 363 364
319 316 321 333 342 345 339 330 324 325 328 327 331 342 344 338 336 338 340 345 346 343 344 349 350 352 357 358 357 355 354 355 355 356 357 357 357 358 357 359 361 361 361 362 362 363 364 364 364 364 364 363 364 364 364 364 364 365 364 365 365 364 365
314 314 321 332 338 338 332 327 324 324 329 329 330 342 346 340 335 338 338 341 343 342 343 347 348 352 355 355 354 353 355 357 358 357 357 355 353 352 352 353 353 355 356 355 354 356 357 359 361 361 362 363 363 364 364 364 364 364 364 365 364 365 365
314 316 323 332 335 330 326 324 324 324 328 331 337 346 346 338 334 336 338 339 341 340 343 345 347 350 352 353 353 353 354 356 357 357 358 355 353 350 347 345 343 345 349 350 350 351 351 351 353 354 356 357 359 360 362 362 364 363 363 363 364 365 364
314 316 320 327 331 328 325 325 324 326 331 337 343 346 342 336 334 335 336 338 340 339 341 343 344 345 348 350 351 352 352 353 355 356 356 355 354 352 349 344 339 336 338 340 341 343 344 343 341 344 349 353 355 357 359 359 360 361 362 361 362 362 364
315 314 317 325 331 327 324 324 325 329 336 341 342 339 335 331 331 333 334 336 338 340 341 341 341 343 345 347 349 349 351 352 353 353 352 351 351 350 348 345 342 338 335 335 335 337 339 338 334 333 338 345 350 354 356 357 359 359 359 359 359 359 359
318 318 321 328 331 326 322 324 330 334 337 337 335 332 330 328 328 330 332 334 336 338 340 340 340 341 342 345 347 347 349 350 351 351 351 350 350 350 349 350 350 347 342 338 337 337 339 343 348 345 340 340 343 346 349 352 355 357 358 358 357 357 356
322 325 327 327 327 324 322 324 329 331 331 330 328 328 328 326 326 327 328 330 333 337 339 339 339 339 340 343 345 346 348 349 348 349 350 349 349 349 349 352 353 353 353 351 349 346 343 347 357 361 357 352 346 342 343 345 346 349 352 355 356 358 358
323 326 325 322 321 321 321 322 325 327 326 325 325 326 326 325 324 325 325 327 331 334 336 338 339 338 339 341 343 344 346 347 348 348 349 348 348 348 347 348 350 352 355 356 355 355 352 350 356 363 363 360 356 353 349 347 346 346 345 347 351 354 356
322 321 321 318 317 319 321 322 324 324 323 323 323 324 324 324 324 323 323 325 329 332 334 337 338 339 339 339 340 341 342 343 344 346 346 347 348 348 347 347 347 350 353 354 354 355 355 354 357 362 363 362 362 362 359 356 355 353 352 351 350 352 355
320 320 321 317 316 318 318 319 321 321 321 322 322 322 322 323 322 323 322 322 326 330 332 334 336 338 339 340 339 338 338 339 341 342 343 345 348 349 348 346 346 348 351 353 353 353 353 352 355 359 362 363 364 364 364 364 363 361 360 360 359 358 358
317 319 319 316 315 317 317 317 319 318 319 321 321 321 321 321 321 321 321 321 323 326 329 332 333 335 336 338 339 337 334 336 339 341 342 344 346 348 348 347 347 346 347 350 351 352 352 351 350 352 356 360 363 363 365 366 367 365 363 362 363 363 362
315 316 316 315 316 317 316 316 317 317 317 319 319 319 320 319 319 320 321 322 323 322 324 327 331 332 332 332 335 337 335 334 336 339 341 343 345 346 347 347 347 347 346 347 349 350 351 350 349 348 349 354 359 362 363 365 367 367 365 363 363 363 363
314 315 314 315 316 317 316 315 315 315 316 317 317 317 318 317 318 320 322 324 323 321 320 321 326 332 332 328 329 333 335 333 333 334 336 339 342 344 344 344 345 346 346 347 348 348 348 348 348 347 347 350 355 358 360 362 364 364 365 365 364 363 363
311 312 312 313 314 314 314 314 314 314 314 316 316 317 316 317 319 321 322 321 321 321 320 318 322 329 332 329 327 328 330 332 332 331 331 336 340 342 341 341 342 345 346 347 347 347 348 347 347 347 347 348 351 355 358 361 362 362 363 364 365 365 365
310 310 311 312 312 313 313 313 313 313 313 314 316 316 317 318 320 320 320 319 318 318 319 318 319 323 330 331 329 325 326 329 331 331 330 331 336 340 343 343 344 345 346 347 347 347 347 348 348 347 346 346 348 352 356 361 363 363 362 362 363 365 365
309 310 310 311 311 311 312 312 312 312 312 314 315 317 317 318 318 317 318 317 317 317 319 319 317 319 327 333 331 324 322 325 328 329 330 328 331 339 345 345 346 347 347 347 348 348 347 347 347 347 346 346 347 350 353 358 361 363 363 362 363 365 365
Wind_Speed
14 14 11 12 12 7 6 8 9 8 6 6 3 4 2 4 5 5 4 4 3 2 6 6 4 6 4 11 20 24 30 33 32 32 37 41 43 46 49 50 52 52 53 54 54 53 53 54 54 55 56 56 56 55 54 52 51 50 49 48 47 47 47
18 21 16 12 14 10 6 9 9 5 4 4 4 2 2 3 5 4 4 6 4 1 5 6 6 8 7 8 15 19 26 30 29 32 38 42 45 48 51 52 53 52 53 55 55 54 54 55 56 57 57 56 55 54 53 53 52 51 50 49 48 47 48
14 18 15 10 13 14 10 9 9 8 5 6 5 4 4 4 4 3 4 6 5 4 5 4 6 11 11 9 13 18 21 23 28 34 39 43 46 47 48 49 49 50 53 56 56 55 55 56 57 57 56 55 54 53 53 52 51 50 50 49 48 47 48
6 9 10 8 12 13 9 7 8 8 5 6 5 3 4 4 4 3 3 4 5 5 6 8 11 14 14 11 11 16 19 24 32 37 40 44 44 43 45 47 48 51 53 56 57 57 56 57 57 55 54 54 54 53 52 51 50 49 49 49 48 48 48
5 5 8 12 12 9 8 7 8 8 4 3 4 2 3 5 3 4 4 4 6 6 7 13 17 15 14 14 13 14 20 30 38 41 42 44 44 44 46 47 48 51 53 54 56 57 56 55 54 53 53 54 53 53 52 51 51 50 50 49 48 48 48
5 6 7 13 15 10 8 7 7 10 6 5 6 5 3 4 3 4 5 4 7 7 7 12 16 15 15 16 14 13 19 32 40 43 46 46 46 46 46 47 49 50 51 52 54 55 54 52 51 52 52 52 52 52 52 52 51 50 50 49 48 48 47
9 14 12 10 14 13 10 7 6 9 7 6 8 7 5 6 5 4 4 3 6 7 7 10 14 15 16 19 16 12 20 34 40 43 46 46 47 49 49 49 50 50 51 52 52 54 53 52 52 52 52 52 52 53 53 52 51 51 50 49 47 46 46
9 13 11 9 10 12 10 7 6 8 10 9 8 6 5 6 7 5 2 4 7 8 5 7 12 16 17 20 19 17 22 33 40 43 45 45 47 49 49 49 49 48 48 48 50 52 53 53 52 52 53 53 53 52 52 51 51 51 50 49 47 46 46
5 6 5 5 6 8 8 8 10 11 14 12 6 4 5 5 8 8 5 4 7 7 5 4 8 14 13 13 17 24 28 33 39 43 44 45 46 46 46 45 44 43 43 45 49 52 53 53 53 54 54 54 53 52 51 51 51 50 50 49 48 47 46
3 5 4 2 3 3 5 10 15 13 13 14 7 4 5 5 6 7 6 6 8 8 8 9 4 11 12 9 14 24 32 37 40 40 40 42 44 44 43 43 42 43 44 46 50 52 53 53 53 54 54 53 52 50 50 50 50 50 49 48 48 47 46
6 7 10 10 8 7 9 11 16 15 13 14 10 5 5 6 5 6 8 9 9 8 8 9 4 6 9 9 11 15 25 36 40 41 41 42 43 43 44 45 45 45 47 48 50 51 52 52 51 52 52 51 50 50 49 49 48 48 48 48 48 47 46
13 15 19 19 14 11 13 13 15 18 14 13 12 7 7 7 6 5 9 9 10 8 8 8 3 6 8 8 9 13 23 33 38 42 44 44 43 44 46 47 47 47 48 49 49 49 50 50 49 49 49 49 49 50 49 48 48 48 48 48 47 47 47
20 19 19 17 14 13 12 13 15 21 17 16 14 9 8 9 8 8 9 10 11 8 7 8 7 5 7 8 12 21 28 33 36 40 42 42 42 43 44 47 49 50 50 49 49 50 49 49 48 47 46 47 48 48 48 48 48 48 48 48 47 47 47
20 18 14 11 10 9 9 10 11 20 20 17 15 10 8 8 8 9 9 10 11 9 8 8 7 5 6 8 11 20 28 30 32 36 38 39 41 41 42 45 48 51 51 51 50 50 49 48 47 46 46 47 47 48 48 48 48 48 48 47 47 47 47
13 13 11 11 12 10 9 9 5 15 20 18 15 11 8 6 7 7 8 9 9 6 2 2 2 6 10 9 7 12 24 31 33 35 37 39 41 41 42 44 45 46 47 48 49 49 49 48 47 47 47 47 47 48 48 48 48 47 47 46 47 47 47
8 9 13 16 16 12 6 6 8 6 15 14 11 10 7 4 5 4 6 6 7 4 3 6 7 9 10 8 6 8 18 29 33 34 34 36 40 42 43 43 41 40 41 43 47 48 48 47 47 47 47 46 47 48 48 47 46 45 45 46 46 46 45
7 9 15 16 12 7 3 6 12 7 5 7 3 3 4 4 0 4 5 6 6 4 7 10 9 9 8 6 7 10 15 23 29 31 32 35 39 42 44 43 41 41 41 43 45 45 45 46 46 47 47 47 47 47 46 45 45 44 45 45 45 44 44
7 13 16 12 3 3 2 5 15 14 6 16 16 10 11 14 10 4 4 4 4 5 9 14 11 9 11 13 16 16 19 22 21 21 23 29 33 35 38 41 42 42 42 42 42 43 43 44 44 45 46 45 44 43 43 43 43 44 44 44 44 43 42
6 10 9 3 4 2 5 4 14 17 10 14 19 18 18 19 17 14 10 3 7 5 9 18 19 18 22 29 30 27 24 27 28 25 21 21 23 25 28 32 35 37 39 39 39 39 40 42 42 43 43 43 41 41 41 41 42 42 43 43 43 42 42
4 5 4 3 6 4 7 8 14 18 15 12 13 17 18 18 16 14 12 8 7 8 12 20 25 30 34 36 33 30 29 32 34 33 29 26 24 23 22 24 25 27 30 32 32 32 32 34 36 39 39 39 39 39 39 39 40 41 41 42 42 42 42
2 4 5 3 3 6 7 9 13 13 10 11 8 6 10 15 17 14 12 11 7 5 10 16 25 35 34 24 21 25 29 32 35 36 34 31 31 29 26 24 23 21 20 20 20 22 23 25 29 32 35 36 36 35 35 36 38 39 40 41 42 42 42
4 5 4 4 4 3 4 11 17 16 12 13 9 1 7 13 18 17 13 11 10 7 2 5 18 29 23 10 9 19 25 29 34 36 34 32 32 31 29 27 26 24 23 21 20 20 20 21 23 26 29 30 31 31 31 33 35 37 39 40 41 42 42
4 4 3 3 1 1 8 16 19 23 25 18 7 3 7 10 17 20 16 12 12 10 8 6 14 19 13 4 6 16 23 29 33 34 33 31 30 29 27 25 24 23 23 22 22 21 21 20 20 21 23 25 26 28 28 29 32 34 37 38 38 40 40
5 4 3 2 1 2 11 16 18 27 32 19 2 7 6 8 15 20 17 14 15 16 15 15 15 12 8 6 9 17 26 30 32 33 32 30 28 26 24 23 20 18 17 18 19 19 17 17 17 18 21 22 22 24 25 26 29 31 33 33 34 36 37
4 5 4 2 1 2 10 18 24 31 25 7 6 7 1 7 13 18 19 18 20 22 22 20 15 13 15 17 18 23 28 30 31 30 29 28 27 24 22 20 19 17 15 13 12 12 12 12 13 15 18 20 20 21 22 24 26 28 28 29 30 31 33
3 4 4 2 1 3 14 23 27 24 10 3 6 4 3 7 11 16 21 23 23 24 26 25 21 22 25 27 27 27 28 29 30 28 25 25 24 22 20 18 16 15 13 11 9 6 5 6 8 10 14 17 18 19 21 23 24 25 26 28 28 28 29
2 3 2 2 0 7 19 21 16 14 9 5 5 6 6 10 15 18 22 26 26 25 25 27 27 27 28 28 28 28 28 28 28 26 24 23 21 19 18 17 15 13 10 9 8 6 2 2 4 6 9 12 14 17 19 21 24 25 25 26 28 28 28
2 0 2 3 2 4 14 14 7 7 9 11 12 10 9 13 19 21 23 26 29 28 25 25 28 29 29 28 27 27 28 27 26 25 24 22 20 18 17 15 13 11 10 9 8 6 3 1 3 4 5 7 10 13 16 19 22 24 25 25 25 26 27
2 2 1 3 5 4 6 13 11 10 14 16 15 13 14 18 21 24 25 26 29 30 27 26 27 28 27 27 26 26 26 25 24 24 23 22 21 19 17 14 10 9 9 7 6 6 5 2 2 3 4 5 8 10 13 15 18 20 22 23 24 24 25
4 3 2 6 10 6 11 16 14 13 15 15 14 14 16 19 21 23 26 26 27 29 29 27 27 27 25 25 25 25 24 23 22 21 21 21 20 20 19 16 12 9 8 7 6 5 4 3 3 3 4 6 7 9 11 12 14 15 16 18 20 22 22
4 3 2 9 12 11 17 18 15 15 16 14 15 16 15 17 19 19 21 23 24 26 27 27 26 26 25 24 23 23 23 22 21 20 19 19 18 18 18 17 15 12 9 9 9 9 7 6 5 6 7 7 8 9 10 11 12 14 14 14 15 17 18
6 4 4 14 14 9 16 18 14 15 16 14 16 18 17 18 18 16 17 19 19 21 24 24 23 24 24 23 22 21 21 20 20 20 19 17 15 15 15 16 15 13 11 11 12 12 12 10 9 9 10 10 9 9 10 11 12 14 15 15 15 15 16
7 4 6 16 14 7 11 16 14 14 15 14 15 16 17 19 19 17 16 16 15 16 19 20 20 20 20 21 19 18 18 18 17 17 17 15 13 12 12 14 14 14 13 12 11 12 12 12 12 13 12 12 11 10 10 12 13 14 15 15 16 16 17
4 4 9 12 7 5 9 14 16 17 17 15 13 13 16 18 18 16 15 14 14 14 15 16 18 17 16 18 18 16 15 16 16 15 14 13 11 11 11 13 13 14 13 11 10 11 12 12 13 14 13 11 10 10 11 12 13 15 16 16 15 16 17
10 14 16 12 6 7 15 20 20 20 18 15 13 13 13 13 13 13 14 16 16 16 15 15 17 16 14 16 18 17 16 16 15 15 14 12 12 12 12 12 12 11 11 10 10 11 11 11 11 12 12 11 10 10 10 10 12 14 16 17 16 16 16
18 21 21 17 14 18 24 27 25 22 18 17 15 11 8 8 8 9 13 16 17 18 17 16 16 15 15 15 17 18 19 18 17 17 15 13 12 10 9 9 9 9 9 10 10 10 10 8 8 10 11 11 10 10 9 9 10 12 14 16 17 18 18
25 28 27 25 26 29 30 30 29 26 20 16 13 9 6 6 8 10 13 16 17 17 17 18 18 16 15 15 17 19 19 19 19 19 17 15 11 7 5 5 6 7 9 10 9 7 6 6 8 10 10 10 9 8 8 9 9 10 12 14 15 17 18
Wind_Direction
215 214 206 186 184 180 186 196 202 203 169 150 192 246 241 126 163 236 236 237 276 272 261 268 233 251 238 169 176 184 193 195 188 186 189 191 192 192 195 197 197 198 197 197 198 199 200 200 201 202 202 204 205 207 208 210 212 215 217 219 220 221 221
216 216 214 205 192 167 163 200 195 151 130 162 173 208 272 157 182 255 251 232 262 234 242 263 226 227 247 192 174 181 189 187 184 188 192 193 194 195 196 198 198 198 197 197 198 200 201 201 203 204 204 205 207 208 210 210 212 213 217 219 220 221 221
213 207 211 222 206 188 184 190 169 146 172 198 176 179 206 185 189 263 271 236 225 205 228 265 221 217 234 217 179 180 184 181 184 190 193 195 195 196 197 197 198 198 198 198 199 200 202 203 204 205 204 205 206 209 211 213 215 216 217 219 220 221 222
236 201 195 216 214 201 188 166 163 172 186 184 174 180 174 163 185 216 248 245 235 228 217 225 228 219 220 215 183 178 182 182 186 190 193 196 196 195 196 196 198 199 199 200 200 200 201 202 204 204 203 204 206 209 212 214 217 218 218 218 219 221 222
294 218 196 207 210 203 186 170 177 186 171 148 172 212 168 146 160 185 194 232 246 244 216 218 227 221 216 213 191 181 185 183 186 190 193 195 195 196 197 197 197 199 200 200 200 201 202 202 202 202 204 205 207 209 212 215 216 216 217 218 219 221 222
300 253 234 212 206 206 192 175 184 188 167 142 178 230 228 169 163 168 175 223 254 245 215 217 224 217 218 216 196 181 184 182 185 190 193 194 193 195 198 198 198 199 200 199 200 200 201 202 202 202 204 206 207 210 212 215 215 216 218 219 220 221 223
264 265 274 241 213 209 197 181 183 187 174 158 181 211 209 189 205 197 172 218 267 255 207 203 222 220 216 214 202 177 176 182 186 191 194 193 192 195 198 198 199 200 200 200 200 200 200 202 203 203 204 206 208 211 212 213 214 217 219 220 221 222 223
268 267 278 276 237 210 200 196 179 183 192 182 178 187 173 182 206 207 207 243 267 271 225 199 222 224 217 212 198 173 170 181 187 191 194 193 192 195 196 197 199 200 199 200 200 200 201 202 204 204 206 208 210 211 211 212 214 217 219 220 221 222 223
285 271 271 293 265 215 207 204 190 193 196 182 155 144 157 194 209 191 187 231 253 269 288 286 236 214 209 203 182 168 169 180 189 192 193 192 191 194 194 194 196 197 198 200 201 201 201 202 204 206 207 208 209 210 211 213 215 216 218 219 220 221 223
252 238 223 261 301 276 246 211 196 194 187 179 163 130 157 204 215 192 187 223 259 285 314 323 273 188 183 172 164 168 172 179 187 190 191 191 190 191 191 192 194 195 197 200 201 201 201 203 205 207 208 209 209 211 212 213 215 216 217 218 219 221 223
268 272 274 286 305 305 283 239 204 188 181 182 173 147 171 186 181 194 209 221 249 282 304 308 298 158 159 152 147 163 172 178 182 185 188 191 190 189 189 191 193 195 198 200 201 201 202 203 205 207 208 208 209 211 212 214 215 216 217 218 219 221 223
281 281 280 282 285 275 276 268 219 190 180 182 179 182 193 163 145 208 232 223 228 254 273 271 248 140 139 141 144 160 172 177 180 182 185 189 190 188 189 191 193 196 198 200 200 201 202 202 204 206 207 208 209 211 213 214 215 216 217 218 219 222 224
296 286 278 272 266 252 262 272 224 193 184 187 186 195 193 159 156 210 225 215 215 229 246 250 241 186 158 149 159 167 171 176 178 179 183 187 188 187 188 190 194 197 199 200 200 202 202 202 202 204 206 208 210 212 213 214 215 216 218 219 220 222 223
296 288 284 285 290 271 275 290 228 191 189 195 188 184 189 177 184 201 194 197 216 225 222 230 237 198 142 126 149 162 165 171 175 177 181 186 187 187 188 191 195 198 200 201 201 202 202 202 203 204 206 208 210 212 213 214 215 217 218 219 220 222 223
291 293 310 331 333 304 284 312 280 195 192 198 193 183 185 195 207 196 165 180 224 254 229 178 130 104 100 94 112 154 164 168 172 175 180 184 187 189 191 193 197 200 200 201 201 201 202 204 205 206 208 209 210 212 214 214 215 217 218 219 221 223 225
288 306 335 335 324 308 290 344 345 222 193 193 198 181 159 183 210 166 131 171 230 261 82 80 74 78 85 87 83 122 160 171 173 175 178 182 185 190 193 195 197 199 200 200 201 202 205 206 207 208 209 210 210 212 213 214 215 217 218 220 222 225 228
284 306 331 322 315 332 360 20 0 321 193 133 119 146 80 20 277 154 160 199 220 191 120 93 75 66 67 64 67 98 143 167 174 174 176 180 185 190 193 195 197 199 201 202 204 206 207 208 209 210 211 211 212 213 214 215 217 217 219 222 224 226 229
290 309 323 313 314 55 29 17 14 1 53 89 78 58 27 12 8 349 259 207 165 154 122 103 91 73 68 62 59 81 118 138 143 148 161 174 182 188 192 195 198 201 202 202 204 207 209 209 210 210 211 213 214 215 216 217 218 219 221 223 225 227 229
280 310 328 289 186 212 282 351 24 12 24 73 71 54 30 13 5 352 335 47 105 114 108 103 102 93 78 68 59 63 88 107 110 108 116 142 162 174 182 189 195 200 202 203 205 206 206 206 206 206 210 213 215 215 216 218 220 221 222 224 226 228 230
278 327 333 212 204 274 322 3 16 7 360 8 35 49 33 8 3 359 353 23 77 104 103 102 103 95 79 67 58 58 71 88 97 98 98 108 125 138 153 166 178 190 199 203 206 206 205 205 205 208 212 215 216 217 218 220 222 223 224 225 227 229 231
340 342 300 272 298 323 346 1 351 347 344 325 332 49 39 5 1 2 4 16 32 81 106 107 101 90 78 65 52 53 65 78 87 92 94 98 104 109 119 130 139 151 167 180 190 197 202 205 209 213 217 219 220 221 222 223 225 226 227 227 228 230 232
349 346 311 329 351 328 339 338 324 319 317 303 292 36 45 7 357 357 3 20 22 13 5 117 98 83 74 64 40 46 61 75 83 87 90 94 99 102 108 116 121 128 136 141 150 164 176 185 197 207 214 218 222 224 225 227 227 227 229 230 231 232 233
310 325 312 317 317 269 328 327 321 321 321 307 275 90 40 357 349 354 0 16 27 15 353 28 80 81 76 71 43 52 66 75 80 84 84 85 91 96 99 105 111 120 129 135 141 149 158 167 178 191 201 209 216 221 225 228 227 229 231 233 234 234 235
285 290 284 290 221 304 319 320 317 317 315 307 246 92 45 336 340 355 3 18 29 24 25 44 64 73 81 88 68 66 73 76 78 81 80 78 81 83 85 89 95 108 124 138 144 147 153 163 174 186 195 202 209 215 220 224 227 230 234 236 237 238 238
285 284 279 282 219 306 319 318 316 314 310 318 80 78 354 306 341 7 17 26 34 36 42 53 58 57 67 78 76 72 74 75 75 77 78 76 74 73 74 75 80 90 103 116 132 144 154 166 180 191 198 203 208 212 217 222 226 231 234 236 238 240 241
268 261 270 287 225 338 331 322 324 331 339 83 68 34 323 329 359 23 30 32 37 44 51 57 59 60 65 69 69 66 67 70 72 73 75 75 73 70 67 64 65 71 79 88 102 120 151 179 193 200 206 212 214 216 220 224 227 231 234 234 236 238 241
268 237 294 9 69 339 339 334 339 5 34 72 37 15 7 14 25 34 36 36 38 43 52 56 55 57 60 62 64 64 64 67 69 69 70 71 71 72 69 64 59 56 57 65 72 75 94 210 222 223 223 223 224 225 227 229 231 233 235 236 236 236 238
338 260 15 32 173 314 351 1 13 26 42 56 47 29 14 22 33 38 37 38 40 43 49 53 52 52 52 54 58 59 60 64 67 68 68 65 63 66 70 71 70 65 63 62 58 55 51 265 245 248 246 236 232 235 236 238 239 238 238 239 238 236 236
289 233 262 316 264 247 34 43 41 31 39 46 42 35 30 27 31 37 39 38 39 42 46 49 49 48 47 48 51 52 53 56 60 65 68 66 61 59 61 67 69 66 69 68 54 46 40 5 272 262 260 245 240 242 243 246 247 245 242 241 240 238 236
287 272 276 329 327 351 55 61 57 46 41 37 33 35 37 33 30 33 37 39 40 40 42 44 45 45 44 45 45 45 46 47 48 54 60 63 62 57 54 54 53 50 52 45 31 30 21 352 317 290 272 255 249 249 247 250 252 249 245 241 239 237 233
320 301 342 353 352 26 55 57 55 47 38 34 33 30 31 36 37 30 29 37 44 43 41 40 41 42 44 44 40 39 41 41 40 42 47 54 57 56 51 47 43 42 36 21 11 6 355 341 319 291 276 265 258 252 245 245 249 249 246 239 233 230 226
318 274 337 355 352 33 57 47 42 45 42 37 33 28 23 29 35 31 26 32 41 45 43 40 37 38 40 41 39 38 38 39 37 38 42 47 52 53 50 45 39 33 25 13 3 355 349 345 331 307 286 272 265 258 245 238 241 247 247 240 231 224 220
306 271 359 2 352 2 30 23 19 27 28 20 16 16 13 12 16 22 28 32 37 42 42 39 36 35 33 32 34 35 36 37 37 37 39 44 48 48 47 44 36 25 18 11 358 347 343 338 332 324 305 281 266 260 251 241 238 241 244 242 236 229 223
298 304 342 353 346 309 324 337 341 346 350 351 350 354 360 2 4 12 26 36 37 35 36 36 35 33 26 21 23 28 31 30 28 28 31 35 41 46 45 41 33 24 15 3 348 340 337 332 326 321 310 289 268 260 255 247 242 242 241 239 234 229 224
280 291 300 306 307 289 293 303 313 319 325 334 337 338 349 360 3 9 19 27 25 22 23 26 28 27 19 12 13 19 22 21 19 20 20 22 28 35 37 34 28 19 4 349 339 334 333 331 322 312 306 296 275 261 255 249 245 243 240 236 230 224 219
283 285 286 291 295 290 287 292 299 301 304 315 325 332 351 11 9 357 358 4 8 8 7 7 10 13 11 6 6 10 12 13 14 14 14 15 16 21 27 25 16 3 348 337 334 331 327 323 313 308 309 305 288 268 256 249 243 239 241 240 233 225 220
281 280 283 285 284 282 283 286 288 288 288 296 310 326 346 356 351 339 335 342 352 359 0 360 360 1 0 358 359 2 4 6 8 7 8 9 4 1 11 11 358 349 339 329 325 323 315 300 296 299 304 305 297 280 266 258 246 235 238 242 237 228 222